Regional Weather Roundup
Issued by NWS Huntsville, AL

Home | Current Version | Previous Version | Text Only | Print | Product List | Glossary On
Versions: 1 2 3 4 5 6 7 8 9 10 11 12 13 14 15 16 17 18 19 20 21 22 23 24 25 26 27 28 29 30 31 32 33 34 35 36 37 38 39 40 41 42 43 44 45 46 47 48 49 50
000
ASUS44 KHUN 291210
RWRHUN

WEATHER ROUNDUP FOR THE TENNESSEE VALLEY
NATIONAL WEATHER SERVICE HUNTSVILLE AL
700 AM CDT SAT AUG 29 2015

ALZ001>004-291300-
NORTHWEST ALABAMA

CITY           SKY/WX    TMP DP  RH WIND       PRES   REMARKS
BANKHEAD NF      N/A     68  68 100 CALM        N/A
SHOALS AIRPORT CLEAR     69  66  90 CALM      30.12R FOG
6HR MIN TEMP:  68; 6HR MAX TEMP:  74;

SHOALS TVA RES   N/A     70 N/A N/A MISG        N/A
$$

ALZ005>007-016-291300-
NORTH CENTRAL ALABAMA

CITY           SKY/WX    TMP DP  RH WIND       PRES   REMARKS
DECATUR AP     PTCLDY    70  68  93 E3        30.14R
6HR MIN TEMP:  69; 6HR MAX TEMP:  73;

HUNTSVILLE AP  PTCLDY    73  68  84 SE8       30.13R
6HR MIN TEMP:  72; 6HR MAX TEMP:  75;

HUN NWS/UAH      N/A     73  66  79 SE5         N/A
MERIDIANVILLE  PTCLDY    70  63  78 CALM      30.14R
REDSTONE ARSN  CLEAR     72  69  90 SE6       30.13R
VINEMONT AP    FAIR      70  68  94 SE5       30.16R
$$

ALZ008>010-291300-
NORTHEAST ALABAMA

CITY           SKY/WX    TMP DP  RH WIND       PRES   REMARKS
ALBERTVILLE    PTCLDY    70  70 100 E3        30.15R
FORT PAYNE     MOCLDY    72  64  78 CALM      30.17R
SCOTTSBORO AP  CLOUDY    68  68 100 CALM      30.17R
SCOTTSBORO HCN   N/A     68 N/A N/A MISG        N/A
VALLEY HEAD      N/A     70 N/A N/A MISG        N/A
$$

TNZ076-096-097-291300-
SOUTHEASTERN MIDDLE TENNESSEE

CITY           SKY/WX    TMP DP  RH WIND       PRES   REMARKS
TULLAHOMA      CLEAR     70  64  83 SE6       30.17R
WINCHESTER     CLEAR     72  66  83 SE10      30.16R
$$

...SURROUNDING SITES...

CITY           SKY/WX    TMP DP  RH WIND       PRES   REMARKS
ATLANTA        MOCLDY    72  68  87 E6        30.19R
ANNISTON       CLOUDY    74  69  85 E7        30.16R
BIRMINGHAM     MOCLDY    73  69  87 VRB3      30.15R
CHATTANOOGA    MOCLDY    70  66  87 CALM      30.19R
DALTON         MOCLDY    66  66 100 CALM      30.19R
GADSDEN        MOCLDY    72  64  78 N3        30.15R
GOLDEN TRNGL   PTCLDY    72  66  83 SE9       30.08R
HALEYVILLE     FAIR      70  70 100 CALM      30.15R
JACKSON TN     CLEAR     72  68  87 S6        30.09R
MEMPHIS        PTCLDY    72  67  84 S9        30.06R
NASHVILLE      PTCLDY    72  65  78 VRB3      30.13R
OXFORD MS      FAIR      68  66  94 SE7       30.09R
ROME           MOCLDY    69  67  93 CALM      30.17R
SAVANNAH       CLEAR     70  32  24 CALM      30.10S
TUPELO         MOCLDY    73  69  87 CALM      30.09R
TUSCALOOSA     PTCLDY    73  67  81 CALM      30.10R
$$

...GULF COAST WEATHER...

CITY           SKY/WX    TMP DP  RH WIND       PRES   REMARKS
GULFPORT       PTCLDY    72  67  84 CALM      30.04R
PASCAGOULA     MOCLDY    67  67 100 CALM      30.05R
MOBILE         PTCLDY    70  68  93 NE6       30.07R
GULF SHORES    SUNNY     71  69  92 CALM      30.05S
PENSACOLA      CLEAR     73  71  93 N6        30.05R THUNDER
DESTIN         CLOUDY    76  73  91 VRB6      30.08R
PANAMA CITY    CLOUDY    74  67  78 E8        30.06S
APPALACHICOLA  TSTM      71  71 100 SW18      30.09R
$$




USA.gov is the U.S. government's official web portal to all federal, state and local government web resources and services.